�������l�o���
Date,Time,MP-1(��Sv/h),MP-2(��Sv/h),MP-3(��Sv/h),MP-4(��Sv/h),MP-5(��Sv/h),MP-6(��Sv/h),MP-7(��Sv/h),����,����(m/s),���J
2017/03/21,00:00,0.389,0.235,0.401,0.370,0.336,0.193,0.166,��쐼,3.1,��
2017/03/21,00:10,0.389,0.235,0.401,0.368,0.334,0.194,0.166,��쐼,2.8,��
2017/03/21,00:20,0.390,0.235,0.398,0.369,0.334,0.195,0.166,��쐼,3.3,��
2017/03/21,00:30,0.389,0.236,0.399,0.369,0.335,0.195,0.165,��쐼,3.1,��
2017/03/21,00:40,0.388,0.235,0.399,0.370,0.335,0.194,0.166,��쐼,2.8,��
2017/03/21,00:50,0.389,0.236,0.400,0.369,0.333,0.196,0.166,��쐼,2.5,��
2017/03/21,01:00,0.389,0.236,0.399,0.368,0.335,0.195,0.166,��,1.5,��
2017/03/21,01:10,0.387,0.236,0.399,0.368,0.334,0.194,0.166,��쐼,2.2,��
2017/03/21,01:20,0.388,0.236,0.402,0.370,0.333,0.195,0.166,��,2.5,��
2017/03/21,01:30,0.389,0.235,0.398,0.369,0.335,0.196,0.166,��,2.4,��
2017/03/21,01:40,0.389,0.237,0.401,0.370,0.334,0.195,0.166,��,1.9,��
2017/03/21,01:50,0.387,0.236,0.399,0.371,0.336,0.194,0.165,��,2.5,��
2017/03/21,02:00,0.389,0.235,0.401,0.369,0.334,0.195,0.166,��,2.8,��
2017/03/21,02:10,0.390,0.236,0.400,0.368,0.335,0.196,0.165,��,3.3,��
2017/03/21,02:20,0.389,0.236,0.400,0.370,0.335,0.196,0.166,��,1.7,��
2017/03/21,02:30,0.390,0.236,0.400,0.370,0.334,0.195,0.166,��쓌,1.0,��
2017/03/21,02:40,0.388,0.235,0.401,0.369,0.335,0.196,0.166,�쓌,1.7,��
2017/03/21,02:50,0.390,0.235,0.398,0.369,0.337,0.195,0.166,��쓌,1.7,��
2017/03/21,03:00,0.389,0.236,0.399,0.369,0.334,0.195,0.166,��쓌,1.7,��
2017/03/21,03:10,0.390,0.236,0.399,0.369,0.334,0.196,0.166,��,2.4,��
2017/03/21,03:20,0.390,0.237,0.400,0.368,0.335,0.195,0.166,��,2.8,��
2017/03/21,03:30,0.388,0.235,0.399,0.369,0.334,0.195,0.166,��쓌,3.1,��
2017/03/21,03:40,0.389,0.235,0.400,0.370,0.334,0.196,0.166,��쓌,2.5,��
2017/03/21,03:50,0.390,0.236,0.400,0.371,0.335,0.195,0.166,��쓌,1.9,��
2017/03/21,04:00,0.389,0.236,0.401,0.369,0.336,0.196,0.167,��쓌,0.8,��
2017/03/21,04:10,0.389,0.236,0.400,0.370,0.335,0.195,0.167,-,CALM,��
2017/03/21,04:20,0.390,0.236,0.400,0.370,0.335,0.197,0.167,�쓌,0.8,��
2017/03/21,04:30,0.389,0.236,0.402,0.369,0.337,0.196,0.167,��,0.7,��
2017/03/21,04:40,0.390,0.236,0.400,0.369,0.335,0.195,0.166,���쓌,1.3,��
2017/03/21,04:50,0.389,0.236,0.400,0.370,0.334,0.196,0.167,���쓌,1.6,��
2017/03/21,05:00,0.390,0.237,0.400,0.369,0.336,0.195,0.166,�쓌,1.4,��
2017/03/21,05:10,0.390,0.235,0.401,0.370,0.336,0.196,0.167,�쓌,0.7,��
2017/03/21,05:20,0.388,0.237,0.399,0.373,0.335,0.195,0.166,��,0.6,�L
2017/03/21,05:30,0.389,0.237,0.400,0.369,0.336,0.195,0.166,�쓌,1.1,�L
2017/03/21,05:40,0.390,0.236,0.401,0.368,0.337,0.196,0.167,�쓌,1.1,��
2017/03/21,05:50,0.390,0.236,0.402,0.370,0.334,0.195,0.167,���쓌,1.9,��
2017/03/21,06:00,0.388,0.236,0.400,0.369,0.336,0.195,0.167,�쓌,1.9,�L
2017/03/21,06:10,0.390,0.237,0.400,0.370,0.337,0.195,0.167,��,2.5,�L
2017/03/21,06:20,0.390,0.237,0.401,0.369,0.334,0.195,0.167,��쓌,1.4,�L
2017/03/21,06:30,0.389,0.237,0.401,0.371,0.334,0.196,0.167,��쓌,1.4,��
2017/03/21,06:40,0.391,0.236,0.400,0.370,0.336,0.195,0.167,��쓌,1.3,�L
2017/03/21,06:50,0.390,0.237,0.400,0.369,0.336,0.196,0.167,��쓌,2.4,�L
2017/03/21,07:00,0.389,0.236,0.400,0.370,0.335,0.196,0.166,��쓌,2.6,�L
2017/03/21,07:10,0.391,0.235,0.401,0.369,0.336,0.196,0.166,�쓌,2.2,�L
2017/03/21,07:20,0.390,0.236,0.400,0.369,0.334,0.195,0.168,�쓌,2.2,�L
2017/03/21,07:30,0.390,0.238,0.402,0.372,0.334,0.195,0.168,�쓌,2.0,�L
2017/03/21,07:40,0.388,0.238,0.400,0.370,0.336,0.196,0.168,��쓌,2.3,�L
2017/03/21,07:50,0.389,0.236,0.399,0.369,0.335,0.196,0.169,��,4.3,�L
2017/03/21,08:00,0.390,0.237,0.400,0.369,0.334,0.196,0.168,��,2.9,�L
2017/03/21,08:10,0.389,0.238,0.401,0.371,0.335,0.197,0.168,��쓌,1.4,�L
2017/03/21,08:20,0.390,0.237,0.400,0.369,0.336,0.197,0.168,�쓌,0.9,�L
2017/03/21,08:30,0.388,0.237,0.399,0.367,0.334,0.196,0.167,���쓌,1.7,�L
2017/03/21,08:40,0.388,0.236,0.401,0.370,0.334,0.195,0.167,���쓌,1.4,�L
2017/03/21,08:50,0.390,0.235,0.399,0.368,0.335,0.195,0.167,���쓌,1.7,�L
2017/03/21,09:00,0.387,0.238,0.398,0.369,0.332,0.195,0.166,��쓌,2.2,�L
2017/03/21,09:10,0.388,0.236,0.400,0.370,0.334,0.196,0.166,��,2.5,�L
2017/03/21,09:20,0.388,0.235,0.400,0.367,0.334,0.195,0.166,��쐼,3.5,�L
2017/03/21,09:30,0.387,0.236,0.400,0.368,0.333,0.194,0.166,��,3.1,�L
2017/03/21,09:40,0.387,0.236,0.398,0.367,0.334,0.195,0.165,��,4.2,�L
2017/03/21,09:50,0.388,0.235,0.399,0.367,0.333,0.195,0.166,��쐼,6.0,�L
2017/03/21,10:00,0.387,0.237,0.397,0.367,0.332,0.193,0.164,��쐼,5.3,�L
2017/03/21,10:10,0.387,0.235,0.398,0.366,0.332,0.194,0.166,��쐼,7.3,�L
2017/03/21,10:20,0.388,0.235,0.397,0.364,0.333,0.194,0.165,��쐼,8.3,�L
2017/03/21,10:30,0.387,0.235,0.395,0.365,0.331,0.195,0.165,��쐼,8.1,�L
2017/03/21,10:40,0.387,0.235,0.395,0.366,0.334,0.195,0.165,��쐼,6.6,�L
2017/03/21,10:50,0.386,0.234,0.397,0.364,0.330,0.194,0.165,�쐼,6.6,�L
2017/03/21,11:00,0.385,0.234,0.395,0.365,0.331,0.194,0.164,�쐼,7.3,�L
2017/03/21,11:10,0.385,0.235,0.396,0.365,0.332,0.194,0.164,��쐼,7.7,�L
2017/03/21,11:20,0.385,0.235,0.394,0.365,0.329,0.194,0.164,��쐼,9.4,�L
2017/03/21,11:30,0.384,0.233,0.395,0.365,0.330,0.193,0.165,��쐼,9.6,�L
2017/03/21,11:40,0.386,0.234,0.396,0.365,0.332,0.194,0.164,��쐼,9.2,�L
2017/03/21,11:50,0.386,0.234,0.396,0.363,0.329,0.195,0.164,��쐼,8.6,�L
2017/03/21,12:00,0.387,0.234,0.396,0.367,0.331,0.195,0.164,��쐼,9.6,�L
2017/03/21,12:10,0.387,0.234,0.396,0.366,0.331,0.195,0.164,��쐼,8.0,�L
2017/03/21,12:20,0.385,0.234,0.395,0.364,0.331,0.194,0.165,��쐼,8.1,�L
2017/03/21,12:30,0.385,0.233,0.395,0.365,0.331,0.195,0.165,��쐼,9.6,�L
2017/03/21,12:40,0.386,0.235,0.395,0.365,0.332,0.196,0.166,�쐼,8.6,�L
2017/03/21,12:50,0.385,0.235,0.394,0.364,0.331,0.196,0.166,�쐼,7.3,�L
2017/03/21,13:00,0.386,0.235,0.395,0.364,0.332,0.195,0.165,��쐼,7.2,�L
2017/03/21,13:10,0.386,0.236,0.393,0.365,0.333,0.195,0.165,��쐼,8.1,�L
2017/03/21,13:20,0.383,0.236,0.393,0.364,0.332,0.194,0.164,��쐼,6.8,�L
2017/03/21,13:30,0.385,0.235,0.392,0.364,0.331,0.195,0.164,��쐼,7.4,�L
2017/03/21,13:40,0.386,0.235,0.392,0.363,0.331,0.193,0.164,��쐼,6.2,�L
2017/03/21,13:50,0.383,0.235,0.392,0.363,0.330,0.194,0.165,��쐼,6.7,�L
2017/03/21,14:00,0.384,0.234,0.393,0.363,0.331,0.194,0.164,��쐼,6.7,�L
2017/03/21,14:10,0.384,0.234,0.391,0.362,0.332,0.193,0.163,��쐼,6.2,�L
2017/03/21,14:20,0.382,0.234,0.391,0.361,0.329,0.193,0.163,��쐼,9.1,�L
2017/03/21,14:30,0.383,0.233,0.391,0.361,0.331,0.193,0.163,��쐼,10.3,�L
2017/03/21,14:40,0.382,0.233,0.390,0.362,0.330,0.193,0.163,��쐼,8.0,�L
2017/03/21,14:50,0.382,0.233,0.389,0.359,0.329,0.193,0.163,��쐼,5.5,�L
2017/03/21,15:00,0.382,0.233,0.389,0.358,0.329,0.192,0.163,��쐼,6.7,�L
2017/03/21,15:10,0.382,0.232,0.389,0.360,0.330,0.193,0.164,�쐼,5.6,�L
2017/03/21,15:20,0.381,0.234,0.386,0.358,0.329,0.193,0.163,�쐼,5.9,�L
2017/03/21,15:30,0.382,0.233,0.390,0.360,0.330,0.194,0.165,�쐼,5.0,�L
2017/03/21,15:40,0.383,0.233,0.387,0.360,0.331,0.193,0.163,�쐼,5.0,�L
2017/03/21,15:50,0.381,0.233,0.387,0.357,0.330,0.195,0.164,��쐼,4.3,�L
2017/03/21,16:00,0.382,0.233,0.385,0.358,0.328,0.194,0.163,��쐼,4.7,�L
2017/03/21,16:10,0.380,0.234,0.387,0.357,0.330,0.194,0.164,��쐼,4.0,�L
2017/03/21,16:20,0.380,0.233,0.385,0.355,0.330,0.194,0.163,��쐼,3.5,�L
2017/03/21,16:30,0.380,0.234,0.386,0.357,0.329,0.193,0.164,��쐼,3.3,�L
2017/03/21,16:40,0.381,0.233,0.386,0.358,0.330,0.193,0.163,���쓌,1.7,�L
2017/03/21,16:50,0.380,0.232,0.385,0.355,0.329,0.194,0.164,�k�k��,2.5,�L
2017/03/21,17:00,0.380,0.233,0.384,0.356,0.329,0.194,0.164,�k�k��,4.4,�L
2017/03/21,17:10,0.381,0.234,0.385,0.354,0.330,0.194,0.165,�k�k��,2.8,�L
2017/03/21,17:20,0.379,0.235,0.385,0.355,0.330,0.194,0.165,�k��,4.0,�L
2017/03/21,17:30,0.379,0.234,0.385,0.355,0.328,0.194,0.166,�k�k��,4.9,�L
2017/03/21,17:40,0.381,0.234,0.383,0.355,0.330,0.194,0.164,�k�k��,4.9,�L
2017/03/21,17:50,0.378,0.233,0.386,0.353,0.331,0.193,0.163,�k�k��,4.7,�L
2017/03/21,18:00,0.380,0.233,0.383,0.356,0.329,0.193,0.163,�k,4.4,�L
2017/03/21,18:10,0.378,0.232,0.383,0.355,0.330,0.192,0.164,�k�k��,4.6,�L
2017/03/21,18:20,0.379,0.233,0.384,0.354,0.330,0.191,0.163,�k,4.2,�L
2017/03/21,18:30,0.377,0.233,0.384,0.355,0.331,0.193,0.163,�k,4.7,�L
2017/03/21,18:40,0.379,0.232,0.383,0.357,0.329,0.192,0.163,�k,3.6,�L
2017/03/21,18:50,0.378,0.232,0.385,0.356,0.330,0.192,0.162,�k,4.3,�L
2017/03/21,19:00,0.377,0.232,0.385,0.355,0.330,0.192,0.161,�k,5.2,�L
2017/03/21,19:10,0.377,0.231,0.385,0.356,0.329,0.191,0.162,�k,5.1,�L
2017/03/21,19:20,0.378,0.231,0.383,0.353,0.331,0.190,0.161,�k,5.8,��
2017/03/21,19:30,0.377,0.231,0.383,0.354,0.328,0.189,0.160,�k�k��,5.4,�L
2017/03/21,19:40,0.377,0.230,0.383,0.355,0.329,0.189,0.160,�k�k��,5.0,��
2017/03/21,19:50,0.377,0.231,0.382,0.354,0.328,0.189,0.160,�k�k��,5.7,�L
2017/03/21,20:00,0.376,0.230,0.382,0.354,0.329,0.189,0.161,�k,5.8,�L
2017/03/21,20:10,0.376,0.228,0.382,0.354,0.328,0.190,0.160,�k,6.1,�L
2017/03/21,20:20,0.377,0.231,0.382,0.353,0.329,0.191,0.160,�k,6.2,�L
2017/03/21,20:30,0.377,0.230,0.383,0.353,0.328,0.190,0.161,�k,6.3,�L
2017/03/21,20:40,0.376,0.230,0.384,0.354,0.327,0.189,0.160,�k�k��,6.2,�L
2017/03/21,20:50,0.376,0.231,0.382,0.353,0.328,0.190,0.160,�k,6.7,�L
2017/03/21,21:00,0.377,0.230,0.382,0.353,0.329,0.190,0.161,�k�k��,7.1,�L
2017/03/21,21:10,0.375,0.232,0.383,0.353,0.327,0.192,0.161,�k�k��,7.5,�L
2017/03/21,21:20,0.377,0.231,0.383,0.353,0.329,0.192,0.163,�k�k��,7.5,�L
2017/03/21,21:30,0.378,0.232,0.382,0.352,0.331,0.192,0.162,�k,7.1,�L
2017/03/21,21:40,0.375,0.232,0.382,0.354,0.330,0.192,0.163,�k,7.4,�L
2017/03/21,21:50,0.377,0.232,0.382,0.354,0.330,0.192,0.162,�k,7.1,�L
2017/03/21,22:00,0.376,0.231,0.382,0.352,0.328,0.191,0.162,�k,7.5,�L
2017/03/21,22:10,0.376,0.231,0.383,0.353,0.331,0.191,0.162,�k,7.8,�L
2017/03/21,22:20,0.375,0.230,0.382,0.355,0.328,0.191,0.161,�k,7.3,�L
2017/03/21,22:30,0.375,0.231,0.382,0.352,0.327,0.192,0.162,�k,8.0,�L
2017/03/21,22:40,0.377,0.230,0.381,0.354,0.329,0.191,0.162,�k,7.5,�L
2017/03/21,22:50,0.374,0.229,0.382,0.355,0.328,0.190,0.161,�k,7.7,�L
2017/03/21,23:00,0.375,0.230,0.382,0.352,0.327,0.190,0.160,�k,8.4,��
2017/03/21,23:10,0.377,0.230,0.382,0.353,0.329,0.190,0.160,�k,8.7,��
2017/03/21,23:20,0.376,0.230,0.381,0.353,0.330,0.189,0.160,�k,7.8,��
2017/03/21,23:30,0.374,0.231,0.384,0.353,0.329,0.189,0.160,�k,8.1,��
2017/03/21,23:40,0.375,0.229,0.382,0.352,0.327,0.189,0.159,�k,8.6,��
2017/03/21,23:50,0.374,0.229,0.382,0.353,0.328,0.189,0.159,�k,10.3,��
